User: anonymous   Login
Location: Unspecified
(0.0000°N, 0.0000°E)
Time: 10:48:27
(UTC+00:00)
Language:

CUSAT 1 - Orbit

View from above orbital plane
View from above orbital plane
View from above satellite
View from above satellite

Ground track
Ground track

The orbit data is extracted from the following two-line orbital elements,

1 39266U 13055B   21016.15353893  .00003437  00000-0  91416-4 0  9999
2 39266  80.9826  72.8863 0619990 333.0052  24.0081 14.39232486379630
Epoch (UTC): 16 January 2021 03:41:05
Eccentricity: 0.0619990
inclination: 80.9826°
perigee height: 318 km
apogee height: 1203 km
right ascension of ascending node: 72.8863°
argument of perigee: 333.0052°
revolutions per day: 14.39232486
mean anomaly at epoch: 24.0081°
orbit number at epoch: 37963

The dashed part of the orbit path shows where the satellite is in the earth's shadow,  

DLR